Terminal Aerodrome Forecast
Issued by NWS

Home | Current Version | Previous Version | Text Only | Print | Product List | Glossary On
Versions: 1 2 3 4 5 6 7 8 9 10 11 12 13 14 15 16 17 18 19
939
FTUS46 KLOX 241540 AAA
TAFLGB
TAF AMD
KLGB 241540Z 2416/2512 13004KT P6SM BKN023
     FM241700 19006KT P6SM SCT025 BKN040
     FM242000 23010KT P6SM BKN050
     FM250100 27008KT P6SM OVC050
     FM250700 VRB03KT P6SM BKN020 BKN040=

USA.gov is the U.S. government's official web portal to all federal, state and local government web resources and services.